Regional Weather Roundup
Issued by NWS Northern Indiana

Home | Current Version | Previous Version | Graphics & Text | Print | Product List | Glossary On
Versions: 1 2 3 4 5 6 7 8 9 10 11 12 13 14 15 16 17 18 19 20 21 22 23 24 25 26 27 28 29 30 31 32 33 34 35 36 37 38 39 40 41 42 43 44 45 46 47 48 49 50
000
ASUS43 KIWX 042300
RWRIWX

KIWX WEATHER ROUNDUP
NATIONAL WEATHER SERVICE NORTHERN INDIANA
700 PM EDT SAT JUL 04 2015

NOTE: "FAIR" INDICATES FEW OR NO CLOUDS BELOW 12,000 FEET WITH NO
SIGNIFICANT WEATHER AND/OR OBSTRUCTIONS TO VISIBILITY.

* THESE STATIONS ARE NOT UNDER NWS QUALITY CONTROL. THEY ALSO MAY NOT
  REPORT WEATHER SUCH AS PRECIPITATION OR FOG.

INZ001>027-050000-
NORTHERN INDIANA

CITY           SKY/WX    TMP DP  RH WIND       PRES   REMARKS
SOUTH BEND     SUNNY     78  57  48 NW6       30.01F
GOSHEN         SUNNY     76  61  59 W7        30.00F
ANGOLA*          N/A     79  73  83 NW3       30.01F
FORT WAYNE     PTSUNNY   78  57  48 NW5       30.00F
PERU/GRISSOM   SUNNY     77  59  53 N7        29.99F

$$
INZ028>050-050000-
CENTRAL INDIANA

CITY           SKY/WX    TMP DP  RH WIND       PRES   REMARKS
LAFAYETTE      SUNNY     78  59  51 W6        29.98F
KOKOMO*        MOSUNNY   79  59  50 N6        29.99F
MUNCIE*        SUNNY     78  57  48 NW9       30.00F
INDIANAPOLIS   MOSUNNY   80  55  42 NW6       29.98S

$$
MIZ043>046-050>051-056>058-064>065-071>073-077>080-050000-
SOUTHWEST LOWER MICHIGAN

CITY           SKY/WX    TMP DP  RH WIND       PRES   REMARKS
BATTLE CREEK   SUNNY     79  58  48 W5        30.01F
BENTON HARBOR  SUNNY     76  56  49 NW3       30.01S
COLDWATER*     SUNNY     75  57  54 W3        30.01S
HILLSDALE*     SUNNY     77  56  47 CALM      30.02F
HOLLAND        SUNNY     75  59  57 W6        30.02S
GRAND RAPIDS   PTSUNNY   78  59  51 W9        30.00S
KALAMAZOO      SUNNY     78  57  48 W6        30.01S
STURGIS*       SUNNY     75  59  57 W3        30.00F
THREE RIVERS*  FAIR      78  57  47 W6        30.01F

$$
OHZ001>008-015>018-024>025-050000-
NORTHWEST OHIO

CITY           SKY/WX    TMP DP  RH WIND       PRES   REMARKS
DEFIANCE       SUNNY     79  56  45 NW5       30.00S
FINDLAY        MOSUNNY   79  56  45 NW6       30.00S
TOLEDO EXPRESS SUNNY     78  54  43 NW3       30.00S
TOLEDO METCALF SUNNY     79  50  36 CALM      30.00F
LIMA           SUNNY     76  58  53 CALM      30.00F

$$
AND FOR LAKE MICHIGAN COASTAL AND OPEN LAKE BUOY OBSERVATIONS

STATION/POSITION TEMP    WIND        PRES    VSBY  WAVE
                 AIR SEA DIR/SP/G                  HT/PER
                 (F)     (DEG/KT/KT) (MB)    (MI)  (FT/S)
CALUMET HARBOR    70      90/  7/  9   N/A
MICHIGAN CITY     67      30/  8/  9   N/A
BURNS HARBOR      71      80/  8/ 10 1016.3F
SAINT JOSEPH      76      CALM  /  1   N/A
4 MI NW BRIDGMAN  69 66                N/A           0
MICHIGAN CITY     67 66   90/  6/  6   N/A           1

$$
&&



USA.gov is the U.S. government's official web portal to all federal, state and local government web resources and services.